INSAT-3D

Last updated on Wed Mar 11 2026 00:02:26 GMT+0000 (Coordinated Universal Time)

1 39216U 13038B 26069.52940354 -.00000338 00000+0 00000+0 0 9994 2 39216 1.6703 83.8231 0001583 255.5080 148.9353 1.00270818 46096
UTC large
Height (km)
Speed (km/s)
/
Latitude / Longitude
Inclination (degrees)
Orbital Period (minutes)
Azimuth
Elevation
Range (km)
Doppler Factor

Next 0 passes for location: London (51.5072 / 0.1276)

Sorry there are no passes over London.